Air Resources Laboratory banner image
Air Resources Laboratory web site National Oceanic and Atmospheric Administration (NOAA)

va roundup


Office: AKQ

ASUS41 KAKQ 160911
RWRAKQ

REGIONAL WEATHER ROUNDUP
NATIONAL WEATHER SERVICE WAKEFIELD VA
500 AM EDT TUE AUG 16 2022

Note: "fair" indicates few or no clouds below 12,000 feet with no
significant weather and/or obstructions to visibility. * = Denotes
station may not report precipitation (e.g., rain,snow,etc.),
thunder or fog.

VAZ042-051-052>054-056-161000-
NORTHERN VIRGINIA

CITY           SKY/WX    TMP DP  RH WIND       PRES   REMARKS
WASH NATIONAL  CLOUDY    69  64  84 N6        29.97F
DULLES         LGT RAIN  66  63  90 N5        29.98F
FORT BELVOIR   MOCLDY    65  63  95 CALM      29.95F
QUANTICO       CLOUDY    66  62  87 NW7       29.97F
FREDERICKSBRG* CLOUDY    64  64 100 CALM      29.95S
STAFFORD*      CLOUDY    63  60  90 CALM      30.01R FOG
WARRENTON      CLOUDY    63  61  91 CALM      29.98R
CULPEPER*      CLOUDY    64  63  95 CALM      29.99S
MANASSAS*      CLOUDY    65  63  93 N8        29.98F
LEESBURG*      LGT RAIN  64  64 100 N5        30.00S
WINCHESTER     MOCLDY    59  59 100 CALM      30.00S
FRONT ROYAL*   CLOUDY    63  61  94 CALM      30.00S
LURAY*         NOT AVBL
$$

VAZ048-049-060>072-079>083-161000-
CENTRAL AND SOUTH CENTRAL VIRGINIA

CITY           SKY/WX    TMP DP  RH WIND       PRES   REMARKS
RICHMOND       CLOUDY    66  63  90 N6        29.95S
CHESTERFIELD*  CLOUDY    63  63 100 VRB3      29.95F
PETERSBURG*    CLOUDY    64  63  95 CALM      29.95F
HANOVER        CLOUDY    65  63  93 CALM      29.96F
TAPPAHANNOCK*  CLOUDY    64  64 100 CALM      29.95F
QUINTON*       CLOUDY    64  63  97 CALM      29.94S
CHARLOTTSVILLE NOT AVBL
GORDONSVILLE*  NOT AVBL
ORANGE*        CLOUDY    63  61  94 CALM      29.99F
LOUISA*        RAIN      63 N/A N/A NW6       29.98S
BUMPASS*       CLOUDY    64  63  94 NW3       29.97F
FARMVILLE*     CLOUDY    64  63  97 CALM      29.96S
CREWE*         CLOUDY    62  59  91 N3        29.96S
FORT PICKETT*  MOCLDY    63  63 100 NW8       29.96S
CHASE CITY*    CLOUDY    64  63  97 CALM      29.96S
CLARKSVILLE*   CLOUDY    64  64 100 CALM      29.95S
SOUTH HILL*    NOT AVBL
LAWRENCEVILLE* CLOUDY    66  65  97 CALM      29.95S
EMPORIA*       CLOUDY    64  63  97 CALM      29.95F
$$

VAZ088>098-161000-
SOUTHEAST VIRGINIA

CITY           SKY/WX    TMP DP  RH WIND       PRES   REMARKS
NORFOLK        PTCLDY    70  68  93 NW5       29.91S
VIRGINIA BEACH PTCLDY    67  66  97 CALM      29.90F
NORFOLK NAVAL  PTCLDY    68  63  84 NW8       29.93S
WEST POINT*    MOCLDY    65  64  94 NW3       29.95S
SALUDA*          N/A    N/A N/A N/A MISG        N/A
NEWPORT NEWS   CLOUDY    66  66 100 N7        29.93S
LANGLEY AFB    NOT AVBL
FORT EUSTIS    CLOUDY    68  66  91 N6        29.91S
WILLIAMSBURG*  NOT AVBL
HR EXEC AP*    CLOUDY    61  61 100 CALM      29.93F
FRANKLIN*      MOCLDY    64  64  98 CALM      29.94S
US460-WAKEFLD  CLOUDY    65  63  93 CALM      29.94F
$$

VAZ020-022-025-037-045-161000-
WEST CENTRAL AND SOUTHWEST VIRGINIA

CITY           SKY/WX    TMP DP  RH WIND       PRES   REMARKS
STAUNTON*      RAIN      60  60  99 CALM      30.03S
WAYNESBORO*    CLOUDY    59  59 100 MISG      30.01S
HOT SPRINGS VA LGT RAIN  56  56 100 NE7       30.05S VSB<1/4
LYNCHBURG      CLOUDY    65  61  87 N3        29.98S
DANVILLE       CLOUDY    64  60  87 NE6       29.96S
SOUTH BOSTON*  CLOUDY    64  62  93 CALM      29.96S
MARTINSVILLE   CLOUDY    62  62  99 N5        30.00S
ROANOKE        CLOUDY    63  60  90 CALM      30.00S
BLACKSBURG     CLOUDY    61  61 100 E3        30.03S
DUBLIN*        CLOUDY    60  60 100 E3        30.01F FOG
MARION*        FOG       61  60  98 E3        30.02F VSB 1/2
HILLSVILLE*    NOT AVBL
RICHLANDS*     NOT AVBL
WISE*          PTCLDY    61  61 100 N3        30.01S
ABINGDON*      NOT AVBL
$$

MDZ021>025-VAZ099-100-161000-
SOUTHERN MARYLAND AND THE DELMARVA PENINSULA

CITY           SKY/WX    TMP DP  RH WIND       PRES   REMARKS
PATUXENT RIVER CLOUDY    72  64  76 NE9       29.94F
BAY BRIDGE APT NOT AVBL
LEONARDTOWN    NOT AVBL
DOVER          PTCLDY    62  60  94 N7        29.95F
GEORGETOWN     PTCLDY    65  62  90 CALM      29.95S
EASTON         NOT AVBL
CAMBRIDGE      NOT AVBL
SALISBURY      MOCLDY    66  62  87 N6        29.94R
TANGIER        CLOUDY    72  67  82 NE14      29.92S
OCEAN CITY     MOCLDY    69  64  84 N7        29.94S
WALLOPS ISLAND CLOUDY    68  65  90 N6        29.93S
ACCOMACK*      CLOUDY    64  61  93 N7        29.92F
$$

NCZ012>017-030>032-161000-
NORTH CENTRAL AND EASTERN NORTH CAROLINA

CITY           SKY/WX    TMP DP  RH WIND       PRES   REMARKS
ROANOKE RAPIDS CLOUDY    63  63 100 CALM      29.95S
RALEIGH        CLOUDY    67  63  87 NE5       29.93S
ELIZABETH CITY PTCLDY    64  62  93 W5        29.91F
AHOSKIE*       CLOUDY    64  64 100 CALM      29.93F
EDENTON*       CLOUDY    67  67  99 CALM      29.93S
CURRITUCK*     PTCLDY   N/A N/A N/A W3        29.90F
KILL DEVIL HLS DRIZZLE   69  69  99 CALM      29.89S
MANTEO         LGT RAIN  69  67  94 W5        29.91S
CAPE HATTERAS  MOCLDY    70  68  93 VRB7      29.88F
TARBORO*       LGT RAIN  65  64  96 NE8       29.92F
GOLDSBORO      PTCLDY    67  56  69 NE7       29.88F
WASHINGTON     NOT AVBL
GREENVILLE     CLOUDY    64  64 100 NE5       29.92S
NEW BERN       PTCLDY    68  66  93 NE6       29.90F
WILMINGTON     MOCLDY    71  70  96 E5        29.88S
$$

VAZ048-161000-
ELSEWHERE

CITY           SKY/WX    TMP DP  RH WIND       PRES   REMARKS
HARRISBURG PA  MOCLDY    67  60  78 CALM      29.99S
BALTIMORE      MOCLDY    67  62  84 CALM      29.97S
ANNAPOLIS      MOCLDY    71  64  78 NE5       29.97S
ANDREWS AFB    MOCLDY    65  62  92 N3        29.95S
PHILADELPHIA   PTCLDY    68  57  68 NW5       29.99R
HENDERSON NC   RAIN      62  61  99 N3        29.95S
GREENSBORO     CLOUDY    63  61  93 NE9       29.94F
ROCKY MOUNT    CLOUDY    65  62  90 NE6       29.93F
$$

VAZ100-161000-
MARINE

STATION/POSITION TIME  TEMP    WIND        PRES    WAVE   SWELL
                       AIR SEA DIR/SP/G            HT/PER HT/PER
                 (UTC) (F)     (DEG/KT/KT) (MB)    (FT/S) (FT/S)
CAPE MAY NJ      0830   66 69   30/  4/  7 1013.8F
LEWES DE         0830   69 72   40/ 10/ 13 1014.1F
15NM E FENWICK I 0850   74 75   30/ 16/ 19 1013.5F   4/ 7   3/ 7
OCEAN-CITY-INLET 0830   71 69   40/  7/ 10 1013.8S
44089 WALLOPS IS 0856      71                N/A     4/ 7
WACHAPREAGUE VA  0830   67 75  350/  3/  6 1012.1F
THOMAS POINT MD  0900   71      40/ 10/ 11 1015.6F
GOOSES REEF MD   0842   70      50/ 12/ 17 1015.3R   1/ 3
COVE POINT MD    0830   71      20/ 12/ 15 1014.5F
SOLOMONS ISLAND  0830   71 82   40/  8/ 10 1012.7F
BISHOPS HEAD MD  0830   71 77   40/ 12/ 15 1013.9F
PINEY POINT MD   0830           30/  5/  6   N/A
POTOMAC MD       0842   71 80   40/ 10/ 14   N/A
CAMBRIDGE MD     0830   70 80   40/  7/  9 1014.3S
LEWISETTA VA     0830   73 79   60/  8/ 13 1013.6F
RAPPAHANNOCK LGT 0830           30/ 14/ 15 1013.1F
STINGRAY PT      0842   72 80   30/ 10/ 14   N/A
YORK RVR RNG VA  0830   70     320/ 10/ 12 1013.0F
YORKTOWN VA      0830   69 79  310/  9/ 11 1012.8F
JAMESTOWN VA     0842   66     350/  4/  6   N/A     0
DOMINION TERM VA 0830   70     360/  7/  8 1013.4F
KIPTOPEKE VA     0830      76   20/  5/  8   N/A
CHES BAY BRIDGE  0830   72      10/  5/  6 1012.0S
CAPE HENRY VA    0830   71     340/  7/  8 1013.2S
WILLOUBY STN VA  0830   69     350/ 10/ 11 1013.1F
S CRANEY ISL VA  0830   70     320/  4/  6 1012.9F
CAPE HENRY BUOY  0826      74                N/A     3/ 6
1ST LANDING BUOY 0842   70     360/  6/  8 1013.9R
64NM E OF VA BCH 0850      78  340/  2/  4 1010.5F
DUCK PIER NC     0830   72 73  350/  7/  9 1012.1F
44100 DUCK FRF   0826      78                N/A     3/ 5
44056 DUCK FRF   0856      74                N/A     2/ 6
OREGON INLET NC  0830   70 81  300/  7/ 10 1012.4F
HATTERAS NC      0830   72 79   30/ 10/ 14 1012.4F
DIAMOND SHLS NC  0850           10/ 16/ 19 1011.4F
CAPE LOOKOUT NC  0800   76      50/  8/  9 1012.3F
$$


ASUS41 KAKQ 160915
RWRAKQ

REGIONAL WEATHER ROUNDUP
NATIONAL WEATHER SERVICE WAKEFIELD VA
500 AM EDT TUE AUG 16 2022

Note: "fair" indicates few or no clouds below 12,000 feet with no
significant weather and/or obstructions to visibility. * = Denotes
station may not report precipitation (e.g., rain,snow,etc.),
thunder or fog.

VAZ042-051-052>054-056-161000-
NORTHERN VIRGINIA

CITY           SKY/WX    TMP DP  RH WIND       PRES   REMARKS
WASH NATIONAL  CLOUDY    69  64  84 N6        29.97F
DULLES         LGT RAIN  66  63  90 N5        29.98F
FORT BELVOIR   MOCLDY    65  63  95 CALM      29.95F
QUANTICO       CLOUDY    66  62  87 NW7       29.97F
FREDERICKSBRG* CLOUDY    64  64 100 CALM      29.95S
STAFFORD*      CLOUDY    63  60  90 CALM      30.01R FOG
WARRENTON      CLOUDY    63  61  91 CALM      29.98R
CULPEPER*      CLOUDY    64  63  95 CALM      29.99S
MANASSAS*      CLOUDY    65  63  93 N8        29.98F
LEESBURG*      LGT RAIN  64  64 100 N5        30.00S
WINCHESTER     MOCLDY    59  59 100 CALM      30.00S
FRONT ROYAL*   CLOUDY    63  61  94 CALM      30.00S
LURAY*         NOT AVBL
$$

VAZ048-049-060>072-079>083-161000-
CENTRAL AND SOUTH CENTRAL VIRGINIA

CITY           SKY/WX    TMP DP  RH WIND       PRES   REMARKS
RICHMOND       CLOUDY    66  63  90 N6        29.95S
CHESTERFIELD*  CLOUDY    63  63 100 VRB3      29.95F
PETERSBURG*    CLOUDY    64  63  95 CALM      29.95F
HANOVER        CLOUDY    65  63  93 CALM      29.96F
TAPPAHANNOCK*  CLOUDY    64  64 100 CALM      29.95F
QUINTON*       CLOUDY    64  63  97 CALM      29.94S
CHARLOTTSVILLE NOT AVBL
GORDONSVILLE*  NOT AVBL
ORANGE*        CLOUDY    63  61  94 CALM      29.99F
LOUISA*        RAIN      63 N/A N/A NW6       29.98S
BUMPASS*       CLOUDY    64  63  94 NW3       29.97F
FARMVILLE*     CLOUDY    64  63  97 CALM      29.96S
CREWE*         CLOUDY    62  59  91 N3        29.96S
FORT PICKETT*  PTSUNNY   63  63 100 NW8       29.96S
CHASE CITY*    CLOUDY    64  63  97 CALM      29.96S
CLARKSVILLE*   CLOUDY    64  64 100 CALM      29.95S
SOUTH HILL*    NOT AVBL
LAWRENCEVILLE* CLOUDY    66  65  97 CALM      29.95S
EMPORIA*       CLOUDY    64  63  97 CALM      29.95F
$$

VAZ088>098-161000-
SOUTHEAST VIRGINIA

CITY           SKY/WX    TMP DP  RH WIND       PRES   REMARKS
NORFOLK        PTCLDY    70  68  93 NW5       29.91S
VIRGINIA BEACH PTCLDY    67  66  97 CALM      29.90F
NORFOLK NAVAL  PTCLDY    68  63  84 NW8       29.93S
WEST POINT*    MOCLDY    65  64  94 NW3       29.95S
SALUDA*          N/A    N/A N/A N/A MISG        N/A
NEWPORT NEWS   CLOUDY    66  66 100 N7        29.93S
LANGLEY AFB    NOT AVBL
FORT EUSTIS    CLOUDY    68  66  91 N6        29.91S
WILLIAMSBURG*  NOT AVBL
HR EXEC AP*    CLOUDY    61  61 100 CALM      29.93F
FRANKLIN*      MOCLDY    64  64  98 CALM      29.94S
US460-WAKEFLD  CLOUDY    65  63  93 CALM      29.94F
$$

VAZ020-022-025-037-045-161000-
WEST CENTRAL AND SOUTHWEST VIRGINIA

CITY           SKY/WX    TMP DP  RH WIND       PRES   REMARKS
STAUNTON*      RAIN      60  60  99 CALM      30.03S
WAYNESBORO*    CLOUDY    59  59 100 MISG      30.01S
HOT SPRINGS VA LGT RAIN  56  56 100 NE7       30.05S VSB<1/4
LYNCHBURG      CLOUDY    65  61  87 N3        29.98S
DANVILLE       CLOUDY    64  60  87 NE6       29.96S
BROOKNEAL*     NOT AVBL
SOUTH BOSTON*  CLOUDY    64  62  93 CALM      29.96S
MARTINSVILLE   CLOUDY    62  62  99 N5        30.00S
ROANOKE        CLOUDY    63  60  90 CALM      30.00S
BLACKSBURG     CLOUDY    61  61 100 E3        30.03S
DUBLIN*        CLOUDY    60  60 100 E3        30.01F FOG
MARION*        FOG       61  60  98 E3        30.02F VSB 1/2
HILLSVILLE*    NOT AVBL
RICHLANDS*     NOT AVBL
WISE*          PTCLDY    61  61 100 N3        30.01S
ABINGDON*      NOT AVBL
$$

MDZ021>025-VAZ099-100-161000-
SOUTHERN MARYLAND AND THE DELMARVA PENINSULA

CITY           SKY/WX    TMP DP  RH WIND       PRES   REMARKS
PATUXENT RIVER CLOUDY    72  64  76 NE9       29.94F
BAY BRIDGE APT NOT AVBL
LEONARDTOWN    NOT AVBL
DOVER          PTCLDY    62  60  94 N7        29.95F
GEORGETOWN     PTCLDY    65  62  90 CALM      29.95S
EASTON         NOT AVBL
CAMBRIDGE      NOT AVBL
SALISBURY      MOCLDY    66  62  87 N6        29.94R
TANGIER        CLOUDY    72  67  82 NE14      29.92S
OCEAN CITY     MOCLDY    69  64  84 N7        29.94S
WALLOPS ISLAND CLOUDY    68  65  90 N6        29.93S
ACCOMACK*      CLOUDY    64  61  93 N7        29.92F
$$

NCZ012>017-030>032-161000-
NORTH CENTRAL AND EASTERN NORTH CAROLINA

CITY           SKY/WX    TMP DP  RH WIND       PRES   REMARKS
ROANOKE RAPIDS CLOUDY    63  63 100 CALM      29.95S
RALEIGH        CLOUDY    67  63  87 NE5       29.93S
ELIZABETH CITY PTCLDY    64  62  93 W5        29.91F
AHOSKIE*       CLOUDY    64  64 100 CALM      29.93F
EDENTON*       CLOUDY    67  67  99 CALM      29.93S
CURRITUCK*     PTCLDY   N/A N/A N/A W3        29.90F
KILL DEVIL HLS DRIZZLE   69  69  99 CALM      29.89S
MANTEO         LGT RAIN  69  67  94 W5        29.91S
CAPE HATTERAS  MOCLDY    70  68  93 VRB7      29.88F
TARBORO*       LGT RAIN  65  64  96 NE8       29.92F
GOLDSBORO      PTCLDY    67  56  69 NE7       29.88F
WASHINGTON     NOT AVBL
GREENVILLE     CLOUDY    64  64 100 NE5       29.92S
NEW BERN       PTCLDY    68  66  93 NE6       29.90F
WILMINGTON     MOCLDY    71  70  96 E5        29.88S
$$

VAZ048-161000-
ELSEWHERE

CITY           SKY/WX    TMP DP  RH WIND       PRES   REMARKS
HARRISBURG PA  MOCLDY    67  60  78 CALM      29.99S
BALTIMORE      MOCLDY    67  62  84 CALM      29.97S
ANNAPOLIS      MOCLDY    71  64  78 NE5       29.97S
ANDREWS AFB    MOCLDY    65  62  92 N3        29.95S
PHILADELPHIA   PTCLDY    68  57  68 NW5       29.99R
HENDERSON NC   RAIN      62  61  99 N3        29.95S
GREENSBORO     CLOUDY    63  61  93 NE9       29.94F
ROCKY MOUNT    CLOUDY    65  62  90 NE6       29.93F
$$

VAZ100-161000-
MARINE

STATION/POSITION TIME  TEMP    WIND        PRES    WAVE   SWELL
                       AIR SEA DIR/SP/G            HT/PER HT/PER
                 (UTC) (F)     (DEG/KT/KT) (MB)    (FT/S) (FT/S)
CAPE MAY NJ      0830   66 69   30/  4/  7 1013.8F
LEWES DE         0830   69 72   40/ 10/ 13 1014.1F
15NM E FENWICK I 0850   74 75   30/ 16/ 19 1013.5F   4/ 7   3/ 7
OCEAN-CITY-INLET 0830   71 69   40/  7/ 10 1013.8S
44089 WALLOPS IS 0856      71                N/A     4/ 7
WACHAPREAGUE VA  0824   67 75   10/  4/  6 1012.1
THOMAS POINT MD  0900   71      40/ 10/ 11 1015.6F
GOOSES REEF MD   0842   70      50/ 12/ 17 1015.3R   1/ 3
COVE POINT MD    0830   71      20/ 12/ 15 1014.5F
SOLOMONS ISLAND  0830   71 82   40/  8/ 10 1012.7F
BISHOPS HEAD MD  0830   71 77   40/ 12/ 15 1013.9F
PINEY POINT MD   0824           40/  5/  6   N/A
POTOMAC MD       0842   71 80   40/ 10/ 14   N/A
CAMBRIDGE MD     0830   70 80   40/  7/  9 1014.3S
LEWISETTA VA     0824   73 79   60/  8/ 11 1013.7
RAPPAHANNOCK LGT 0824           20/ 12/ 13 1013.1
STINGRAY PT      0842   72 80   30/ 10/ 14   N/A
YORK RVR RNG VA  0824   71     320/  9/ 11 1013.0
YORKTOWN VA      0824   69 79  310/  9/ 11 1012.8
JAMESTOWN VA     0842   66     350/  4/  6   N/A     0
DOMINION TERM VA 0824   70     350/  6/  9 1013.5
KIPTOPEKE VA     0824      76   30/  6/  7   N/A
CHES BAY BRIDGE  0824   72      10/  6/  7 1012.0
CAPE HENRY VA    0824   71     340/  7/  8 1013.1
WILLOUBY STN VA  0824   69     350/  9/ 11 1013.2
S CRANEY ISL VA  0824   70     320/  4/  6 1012.9
CAPE HENRY BUOY  0826      74                N/A     3/ 6
1ST LANDING BUOY 0842   70     360/  6/  8 1013.9R
64NM E OF VA BCH 0850      78  340/  2/  4 1010.5F
DUCK PIER NC     0824   72 73  340/  7/ 10 1012.2
44100 DUCK FRF   0856      78                N/A     3/ 5
44056 DUCK FRF   0856      74                N/A     2/ 6
OREGON INLET NC  0824   71 81  310/  6/ 11 1012.4F
HATTERAS NC      0824   72 79   20/ 13/ 17 1012.4
DIAMOND SHLS NC  0850           10/ 16/ 19 1011.4F
CAPE LOOKOUT NC  0800   76      50/  8/